STARLINK-5646, 55461

Orbit data source: Space-Track

STARLINK-5646, 55461 is a payload satellite owned by SpaceX/Seattle (US) in LEO that was launched on Thu, 02 Feb 2023 UTC via an FALCON 9 launch vehicle from the Air Force Eastern Test Range (AFETR). Payload-class satellites include a variety of spacecraft equipped with specific instruments for various scientific and technological missions. These include communications satellites like Starlink; space stations such as the ISS; scientific satellites like the Hubble; Earth observation satellites from companies like Planet Labs, Umbra, and HawkEye 360; GPS; miniature CubeSats for education and research; and military/defense satellites.

Loading next visibility...
Identifier
55461, 2023-015N
Orbit
LEO
Country
Flag of USUS
Related business
Manufacturer
SpaceX/Seattle
Mission
Operational Commercial Communications
Bus & Motor
STARLINK, Unknown motor
Mass
305 kg wet, ~290 kg dry
Launch date (UTC)
2023-02-02 (3 years ago)
Launch vehicle
FALCON 9
Launch site
Air Force Eastern Test Range (AFETR)
Object type
Payload
Rocket body
Debris
Shape & HBR
Box + 1 Pan, 10.1 m
Radar Cross Section
13.562 m², Large (>1 m²)

Expand to show TLE details & history
Last TLE update: 1 day ago

TLE from 1 day ago
0 STARLINK-5646
1 55461U 23015N   25303.00550637  .00000434  00000-0  47205-4 0  9994
2 55461  43.0044 316.2701 0001191 266.0031  94.0675 15.02537160151095
Epoch: 2025-10-30T00:07Z
TLE epoch observation values (Epoch: 2025-10-30T00:07:55.750Z)
Latitude
-0.00003°
Longitude
-84.28273°
Altitude
558.913 km
Speed
7.584 km/s
True Right ascension
21h 05m 04s
True Declination
0° 00' 00"
Sunlit
Object was in daylight at epoch
Visualization orbit readout
Latitude
Unknown
Longitude
Unknown
Altitude
Unknown
Speed
Unknown
Apparent Right ascension
Unknown
Apparent Declination
Unknown
Sunlit
N/A
Visualization observer readout
Local Sidereal Time
19:50:30
Azimuth
Unknown
Elevation
Unknown
Doppler factor
Unknown
Orbital elements
Apogee altitude
561.826 km
Perigee altitude
560.173 km
Semi-major axis
6,939.136 km
Eccentricity
0.00012
Inclination
43.0044°
RAAN
316.2701°
Arg. of periapsis
266.0031°
True anomaly
94.08111°
Mean anomaly
94.0675°
Eccentric anomaly
94.07431°
Mean motion
3.75478 °/min
Orbital period
95.88 mins
BSTAR
0.000047205
Loading maneuver chart data...
Computing Atmospheric mass density...
Loading historical data...
Loading historical data...
Loading historical data...
Loading historical data...
Loading historical data...
Loading historical data...
Loading historical data...

Documentation

Showing up to 5 results
|